Location: Newark
(27.2452°N, 107.0032°W)
Time: 16:39:14
(UTC+00:00)

LightSail 2 - Visible Passes

Search period start: 09 December 2019 00:00
Search period end: 19 December 2019 00:00
Orbit: 696 x 730 km, 24.0° (Epoch: 08 December)

Date Brightness Start Highest point End Pass type
(mag) Time Alt. Az. Time Alt. Az. Time Alt. Az.
09 Dec 5.8 00:30:34 10° W 00:35:39 57° S 00:40:41 10° ESE visible
09 Dec 6.4 02:16:21 10° W 02:20:56 32° SSW 02:21:46 31° S visible
10 Dec 6.3 01:18:04 10° W 01:22:54 40° SSW 01:27:42 10° SE visible
10 Dec 7.7 03:04:44 10° WSW 03:06:41 16° SW 03:06:41 16° SW visible
11 Dec 7.1 02:06:03 10° WSW 02:10:02 23° SSW 02:12:43 15° SSE visible
12 Dec 6.9 01:07:34 10° WSW 01:12:02 29° SSW 01:16:27 10° SE visible
13 Dec 7.7 01:56:18 10° WSW 01:59:04 14° SSW 02:01:49 10° S visible
14 Dec 7.6 00:57:21 10° WSW 01:01:03 20° SSW 01:04:44 10° SSE visible
16 Dec 8.0 00:48:01 10° SW 00:50:01 12° SSW 00:52:01 10° S visible
